This is the latest recevied weather packets stored in our database for station/object N4UUJ-1. If no packets are shown the sender has not sent any weather packets the latest 10 day(s).
| Time | Temp. | Humidity | Pressure | Rain* | Wind** | Luminosity | Snow |
|---|---|---|---|---|---|---|---|
| 1787813340 | 16.11° C | 75% | 1019 hPa | 0 mm | - | - | - |
| 1787811539 | 16.67° C | 75% | 1018.9 hPa | 0 mm | - | - | - |
| 1787809738 | 17.22° C | 75% | 1019 hPa | 0 mm | - | - | - |
| 1787807937 | 17.22° C | 75% | 1019 hPa | 0 mm | - | - | - |
| 1787806136 | 17.78° C | 75% | 1019.2 hPa | 0 mm | - | - | - |
| 1787804335 | 17.78° C | 75% | 1019.2 hPa | 0 mm | - | - | - |
| 1787802534 | 18.33° C | 75% | 1019 hPa | 0 mm | - | - | - |
| 1787800733 | 18.33° C | 75% | 1018.9 hPa | 0 mm | - | - | - |
| 1787798932 | 18.89° C | 75% | 1018.8 hPa | 0 mm | - | - | - |
| 1787797131 | 19.44° C | 75% | 1018.8 hPa | 0 mm | - | - | - |
| 1787795330 | 19.44° C | 75% | 1019 hPa | 0 mm | - | - | - |
| 1787793529 | 19.44° C | 75% | 1019 hPa | 0 mm | - | - | - |
| 1787791728 | 19.44° C | 75% | 1019.1 hPa | 0 mm | - | - | - |
| 1787789927 | 19.44° C | 75% | 1018.8 hPa | 0 mm | - | - | - |
| 1787788126 | 20° C | 75% | 1018.3 hPa | 0 mm | - | - | - |
| 1787786327 | 20° C | 75% | 1018.3 hPa | 0 mm | - | - | - |
| 1787784524 | 20° C | 75% | 1018.4 hPa | 0 mm | - | - | - |
| 1787782723 | 20.56° C | 75% | 1019 hPa | 0 mm | - | - | - |
| 1787780922 | 21.11° C | 75% | 1019.5 hPa | 0 mm | - | - | - |
| 1787779121 | 23.33° C | 75% | 1019.5 hPa | 0 mm | - | - | - |
| 1787777320 | 25° C | 75% | 1019.4 hPa | 0 mm | - | - | - |
| 1787775519 | 26.11° C | 75% | 1019.4 hPa | 0 mm | - | - | - |
| 1787773718 | 27.78° C | 75% | 1019.4 hPa | 0 mm | - | - | - |
| 1787771917 | 29.44° C | 75% | 1019.8 hPa | 0 mm | - | - | - |
| 1787770116 | 29.44° C | 75% | 1020.2 hPa | 0 mm | - | - | - |
* Rain latest hour (hover to see other rain measurements)
** Current wind speed in m/s (hover to see current wind gust speed)